Weather History for Bismarck, ND

Change the Weather History Date:

Tuesday, November 20, 2012

  Actual Average Record
Temperature  
Mean Temperature 38 °F 27 °F  
Max Temperature 49 °F 37 °F 69 °F (1890)
Min Temperature 26 °F 17 °F -16 °F (1875)
Degree Days  
Heating Degree Days 27 38  
Month to date heating degree days 684 662  
Since 1 July heating degree days 1599 1574  
Cooling Degree Days 0 0  
Month to date cooling degree days 0 0  
Year to date cooling degree days 599 520  
Moisture  
Dew Point 29 °F    
Average Humidity 74    
Maximum Humidity 92    
Minimum Humidity 56    
Precipitation  
Precipitation 0.00 in 0.02 in 0.70 in (1930)
Month to date precipitation 1.07 0.53  
Year to date precipitation 14.27 17.18  
Snow  
Snow 0.00 in 0.30 in 8.60 in (1930)
Month to date snowfall 10.5 5.8  
Since 1 July snowfall 10.5 8.2  
Since 1 September snowfall 10.5 8.2  
Snow Depth 2.00 in    
Sea Level Pressure  
Sea Level Pressure 30.00 in    
Wind  
Wind Speed 5 mph (SE)    
Max Wind Speed 12 mph    
Max Gust Speed 13 mph    
Visibility 10 miles    
Events      
T = Trace of Precipitation, MM = Missing Value Source: NWS Daily Summary

Daily Weather History Graph

Daily Weather History Graph

Search for Another Location

Airport:

Trip Planner

Search our weather history database for the weather conditions in past years. The results will help you decide how hot, cold, wet, or windy it might be!

Date:

Astronomy

Nov. 20, 2012 Rise Set
Actual Time 7:53 AM CST 5:03 PM CST
Civil Twilight 7:20 AM CST 5:37 PM CST
Nautical Twilight 6:42 AM CST 6:14 PM CST
Astronomical Twilight 6:06 AM CST 6:50 PM CST
Moon 1:15 PM CST (11/20) No Moon Set
Length of Visible Light 10h 17m
Length of Day
9h 10m
First Quarter, 51% of the Moon is Illuminated
Nov 20
First Quarter
Nov 28
Full
Dec 6
Last Quarter
Dec 13
New
Dec 19
First Quarter

Hourly Weather History & Observations

Time (CST) Temp. Windchill Dew Point Humidity Pressure Visibility Wind Dir Wind Speed Gust Speed Precip Events Conditions
12:52 AM 27.0 °F 21.6 °F 24.1 °F 89% 30.14 in 10.0 mi SE 4.6 mph - N/A   Clear
1:52 AM 30.2 °F 22.6 °F 24.8 °F 80% 30.07 in 10.0 mi ESE 8.1 mph - N/A   Clear
2:52 AM 28.0 °F 20.8 °F 24.1 °F 85% 30.11 in 10.0 mi ESE 6.9 mph - N/A   Clear
3:52 AM 30.0 °F 24.1 °F 25.0 °F 82% 30.10 in 10.0 mi SE 5.8 mph - N/A   Clear
4:52 AM 30.0 °F 25.2 °F 25.0 °F 82% 30.09 in 10.0 mi East 4.6 mph - N/A   Clear
5:52 AM 30.0 °F 21.7 °F 26.1 °F 85% 30.06 in 10.0 mi ESE 9.2 mph - N/A   Clear
6:52 AM 30.9 °F 23.5 °F 26.1 °F 82% 30.06 in 10.0 mi SE 8.1 mph - N/A   Clear
7:52 AM 30.9 °F 23.5 °F 26.1 °F 82% 30.07 in 10.0 mi SE 8.1 mph - N/A   Clear
8:52 AM 30.9 °F 24.3 °F 27.0 °F 85% 30.06 in 10.0 mi ESE 6.9 mph - N/A   Clear
9:52 AM 35.1 °F 29.3 °F 28.9 °F 78% 30.04 in 10.0 mi SE 6.9 mph - N/A   Clear
10:52 AM 37.9 °F 32.1 °F 30.9 °F 76% 30.03 in 10.0 mi SSE 8.1 mph - N/A   Clear
11:52 AM 43.0 °F 41.3 °F 30.9 °F 62% 30.02 in 10.0 mi SW 3.5 mph - N/A   Clear
12:52 PM 44.1 °F 39.0 °F 32.0 °F 63% 29.97 in 10.0 mi SSE 9.2 mph - N/A   Clear
1:52 PM 48.0 °F - 33.1 °F 56% 29.95 in 10.0 mi Calm Calm - N/A   Clear
2:52 PM 46.9 °F - 33.1 °F 59% 29.93 in 10.0 mi Calm Calm - N/A   Clear
3:52 PM 45.0 °F 42.6 °F 34.0 °F 65% 29.93 in 10.0 mi South 4.6 mph - N/A   Clear
4:52 PM 39.2 °F - 33.8 °F 81% 29.89 in 10.0 mi Calm Calm - N/A   Clear
5:52 PM 37.0 °F 32.4 °F 30.9 °F 79% 29.93 in 10.0 mi SE 5.8 mph - N/A   Clear
6:52 PM 36.0 °F - 30.9 °F 82% 29.94 in 10.0 mi Calm Calm - N/A   Clear
7:52 PM 36.0 °F 33.3 °F 30.9 °F 82% 29.95 in 10.0 mi ENE 3.5 mph - N/A   Clear
8:52 PM 33.1 °F - 30.0 °F 89% 29.95 in 10.0 mi Calm Calm - N/A   Clear
9:52 PM 32.0 °F 28.7 °F 28.9 °F 88% 29.94 in 10.0 mi East 3.5 mph - N/A   Clear
10:52 PM 30.9 °F - 28.0 °F 89% 29.94 in 10.0 mi Calm Calm - N/A   Clear
11:52 PM 30.0 °F 26.5 °F 27.0 °F 88% 29.92 in 10.0 mi ENE 3.5 mph - N/A   Clear